Погода в Ковран

Россия / Камчатский край     57°12′03″N   156°53′23″E
темп.,
°C
ветер,
м/с
пор.,
м/с
влажн.,
%
обл.,
%
осадки,
мм/ч
давл.,
гПа
погр.,
м
28 ноября, вс
вс2800:00−17в218577 0.0 101024
03:00−18вюв218764 0.0 101018
06:00−18юв228993 0.0 101016
09:00−18юв228965 0.0 101017
12:00−14юв228016 0.0 100949
15:00−13ююв228076 0.0 100871
18:00−15ююв228465 0.0 100937
21:00−17юв32865 0.0 100824
29 ноября, пн
пн2900:00−17юв338642 0.0 100824
03:00−15юв3382100 0.0 100748
06:00−13юв3581100 0.0 1007118
09:00−13юв3995100 0.4 1007248
12:00−10ююв51293100 0.6 1007288
15:00−6ююз81186100 0.8 1006694
18:00−5юз71180100 1.2 1006360
21:00−6юз51077100 0.3 1007267
30 ноября, вт
вт3000:00−7ююз6991100 0.8 1007397
03:00−6ююз6993100 1.3 1007411
06:00−6ююз4691100 2.1 1006258
09:00−7ююз3594100 1.0 1006204
12:00−7юз3494100 2.4 1006304
15:00−6ююз5887100 1.1 1005567
18:00−6юз71270100 2.2 1006439
21:00−7з91364100 0.6 1007434
1 декабря, ср
ср100:00−7з91463100 1.4 1009431
03:00−7з111568100 0.8 1011527
06:00−6з111564100 1.1 1012540
09:00−6з111564100 0.4 1014575
12:00−5з111565100 0.8 1016659
15:00−5з101465100 0.4 1018617
18:00−6юз4575100 0.5 1019127
21:00−8юв2294100 0.0 101945
2 декабря, чт
чт200:00−9в3393100 0.1 101734
03:00−6всв71480100 0.1 1011318
06:00−5всв81591100 1.7 1003429
09:00−4в51495100 8.4 995435
12:000юв152090100 16.0 990416
15:00+2юв131876100 0.6 984291
18:00+2юв131876100 2.9 979295
21:00+1ю122197100 1.6 980900